Boulder City, NV

4:09 PM PST on February 25, 2017 (GMT -0800)
Boulder City

Weather History for KBVU - December, 2013

Change the Weather History Date:

Wednesday, December 4, 2013

  Actual Average (KLAS) Record (KLAS)
Temperature  
Mean Temperature 38 °F -  
Max Temperature 44 °F 59 °F 76 °F (1939)
Min Temperature 33 °F 37 °F 24 °F (1948)
Degree Days  
Heating Degree Days 26    
Moisture  
Dew Point 18 °F    
Average Humidity 46    
Maximum Humidity 81    
Minimum Humidity 18    
Precipitation  
Precipitation 0.00 in - - ()
Sea Level Pressure  
Sea Level Pressure 29.93 in    
Wind  
Wind Speed 13 mph (North)    
Max Wind Speed 23 mph    
Max Gust Speed 32 mph    
Visibility 10 miles    
Events      
Averages and records for this station are not official NWS values.
T = Trace of Precipitation, MM = Missing Value Source: NWS Daily Summary

Daily Weather History Graph

Daily Weather History Graph

Search for Another Location

Airport or City:

Trip Planner

Search our weather history database for the weather conditions in past years. The results will help you decide how hot, cold, wet, or windy it might be!

Date:

Astronomy

Dec. 04, 2013 Rise Set
Actual Time 6:34 AM PST 4:25 PM PST
Civil Twilight 6:06 AM PST 4:53 PM PST
Nautical Twilight 5:34 AM PST 5:25 PM PST
Astronomical Twilight 5:03 AM PST 5:56 PM PST
Moon 8:07 AM PST (12/4) 6:38 PM PST (12/4)
Length of Visible Light 10h 47m
Length of Day
9h 50m
Waxing Crescent, 5% of the Moon is Illuminated
Dec 4
Waxing Crescent
Dec 9
First Quarter
Dec 17
Full
Dec 25
Last Quarter
Jan 1
New

Hourly Weather History & Observations

Time (PST) Temp. Windchill Dew Point Humidity Pressure Visibility Wind Dir Wind Speed Gust Speed Precip Events Conditions
12:15 AM 39.2 °F 29.0 °F 33.8 °F 81% 29.69 in 5.0 mi North 21.9 mph - N/A   Haze
12:35 AM 39.2 °F 28.7 °F 33.8 °F 81% 29.69 in 8.0 mi North 23.0 mph 31.1 mph N/A   Overcast
12:55 AM 39.2 °F 28.7 °F 33.8 °F 81% 29.70 in 10.0 mi North 23.0 mph 32.2 mph N/A   Overcast
1:15 AM 39.2 °F 30.2 °F 32.0 °F 75% 29.73 in 10.0 mi North 17.3 mph 26.5 mph N/A   Unknown
1:35 AM 39.2 °F 32.5 °F 32.0 °F 75% 29.74 in 10.0 mi NNW 10.4 mph 18.4 mph N/A   Unknown
1:55 AM 39.2 °F 30.8 °F 32.0 °F 75% 29.76 in 10.0 mi NNW 15.0 mph - N/A   Overcast
2:15 AM 39.2 °F 31.6 °F 32.0 °F 75% 29.77 in 10.0 mi NNW 12.7 mph 18.4 mph N/A   Overcast
2:35 AM 39.2 °F 30.8 °F 30.2 °F 70% 29.77 in 10.0 mi NNW 15.0 mph - N/A   Overcast
2:55 AM 39.2 °F 31.2 °F 30.2 °F 70% 29.78 in 10.0 mi NNW 13.8 mph - N/A   Overcast
3:15 AM 39.2 °F 31.2 °F 28.4 °F 65% 29.78 in 10.0 mi North 13.8 mph - N/A   Overcast
3:35 AM 39.2 °F 31.2 °F 28.4 °F 65% 29.79 in - NNW 13.8 mph - N/A   Overcast
3:55 AM 37.4 °F 29.8 °F 28.4 °F 70% 29.79 in 10.0 mi NNW 11.5 mph - N/A   Overcast
4:15 AM 37.4 °F 29.8 °F 30.2 °F 75% 29.78 in 10.0 mi North 11.5 mph - N/A   Overcast
4:35 AM 37.4 °F 32.8 °F 30.2 °F 75% 29.80 in 10.0 mi North 5.8 mph - N/A   Mostly Cloudy
4:55 AM 37.4 °F 33.8 °F 30.2 °F 75% 29.81 in 10.0 mi NNW 4.6 mph - N/A   Mostly Cloudy
5:15 AM 37.4 °F 30.3 °F 26.6 °F 65% 29.82 in 10.0 mi North 10.4 mph - N/A   Mostly Cloudy
5:35 AM 37.4 °F 30.3 °F 26.6 °F 65% 29.82 in 10.0 mi North 10.4 mph - N/A   Overcast
5:55 AM 39.2 °F 33.6 °F 26.6 °F 61% 29.83 in 10.0 mi NNE 8.1 mph - N/A   Overcast
6:15 AM 37.4 °F 31.4 °F 24.8 °F 60% 29.84 in 10.0 mi NNE 8.1 mph - N/A   Overcast
6:35 AM 37.4 °F 32.1 °F 24.8 °F 60% 29.85 in 10.0 mi North 6.9 mph - N/A   Scattered Clouds
6:55 AM 37.4 °F 30.8 °F 26.6 °F 65% 29.86 in 10.0 mi North 9.2 mph 15.0 mph N/A   Partly Cloudy
7:15 AM 39.2 °F 34.2 °F 24.8 °F 56% 29.88 in 10.0 mi North 6.9 mph 13.8 mph N/A   Mostly Cloudy
7:35 AM 39.2 °F 33.6 °F 23.0 °F 52% 29.90 in 10.0 mi North 8.1 mph 15.0 mph N/A   Overcast
7:55 AM 39.2 °F 30.5 °F 21.2 °F 49% 29.91 in 10.0 mi NNW 16.1 mph - N/A   Overcast
8:15 AM 39.2 °F 30.8 °F 21.2 °F 49% 29.93 in 10.0 mi NNW 15.0 mph - N/A   Overcast
8:35 AM 39.2 °F 32.5 °F 21.2 °F 49% 29.94 in 10.0 mi NNW 10.4 mph 19.6 mph N/A   Mostly Cloudy
8:55 AM 39.2 °F 32.0 °F 21.2 °F 49% 29.95 in 10.0 mi North 11.5 mph - N/A   Mostly Cloudy
9:15 AM 39.2 °F 30.8 °F 19.4 °F 45% 29.96 in 10.0 mi North 15.0 mph - N/A   Scattered Clouds
9:35 AM 41.0 °F 34.3 °F 19.4 °F 42% 29.98 in 10.0 mi North 11.5 mph - N/A   Mostly Cloudy
9:55 AM 41.0 °F 33.1 °F 19.4 °F 42% 29.98 in 10.0 mi North 15.0 mph 20.7 mph N/A   Mostly Cloudy
10:15 AM 41.0 °F 33.5 °F 19.4 °F 42% 29.99 in 10.0 mi NNW 13.8 mph - N/A   Partly Cloudy
10:35 AM 42.8 °F 35.8 °F 17.6 °F 36% 29.98 in 10.0 mi North 13.8 mph - N/A   Clear
10:55 AM 42.8 °F 35.8 °F 14.0 °F 31% 29.98 in 10.0 mi North 13.8 mph 23.0 mph N/A   Clear
11:15 AM 42.8 °F 36.6 °F 12.2 °F 29% 29.98 in 10.0 mi North 11.5 mph 18.4 mph N/A   Clear
11:35 AM 44.6 °F 38.4 °F 12.2 °F 27% 29.98 in 10.0 mi North 12.7 mph 19.6 mph N/A   Clear
11:55 AM 44.6 °F 36.9 °F 6.8 °F 21% 29.97 in 10.0 mi North 18.4 mph 24.2 mph N/A   Clear
12:15 PM 44.6 °F 37.4 °F 8.6 °F 23% 29.96 in 10.0 mi NNE 16.1 mph 24.2 mph N/A   Clear
12:35 PM 44.6 °F 37.4 °F 8.6 °F 23% 29.96 in 10.0 mi North 16.1 mph 23.0 mph N/A   Clear
12:55 PM 44.6 °F 38.4 °F 5.0 °F 20% 29.96 in 10.0 mi North 12.7 mph 19.6 mph N/A   Clear
1:15 PM 44.6 °F 38.4 °F 3.2 °F 18% 29.96 in 10.0 mi North 12.7 mph 23.0 mph N/A   Clear
1:35 PM 44.6 °F 37.8 °F 5.0 °F 20% 29.95 in 10.0 mi NNE 15.0 mph - N/A   Clear
1:55 PM 44.6 °F 38.1 °F 5.0 °F 20% 29.96 in 10.0 mi NE 13.8 mph - N/A   Clear
2:15 PM 44.6 °F 38.4 °F 6.8 °F 21% 29.96 in - NNE 12.7 mph 24.2 mph N/A   Clear
2:35 PM 44.6 °F 38.1 °F 5.0 °F 20% 29.96 in 10.0 mi North 13.8 mph 20.7 mph N/A   Clear
2:55 PM 44.6 °F 37.8 °F 3.2 °F 18% 29.96 in 10.0 mi North 15.0 mph - N/A   Clear
3:15 PM 44.6 °F 39.2 °F 6.8 °F 21% 29.97 in 10.0 mi NNE 10.4 mph 16.1 mph N/A   Clear
3:35 PM 42.8 °F 37.0 °F 8.6 °F 25% 29.97 in 10.0 mi NNE 10.4 mph 17.3 mph N/A   Clear
3:55 PM 42.8 °F 37.5 °F 10.4 °F 27% 29.98 in 10.0 mi NNE 9.2 mph - N/A   Clear
4:15 PM 42.8 °F 39.3 °F 12.2 °F 29% 29.98 in 10.0 mi ENE 5.8 mph - N/A   Clear
4:35 PM 41.0 °F - 14.0 °F 33% 29.98 in 10.0 mi Calm Calm - N/A   Clear
4:55 PM 39.2 °F - 15.8 °F 39% 29.98 in 10.0 mi Calm Calm - N/A   Clear
5:15 PM 39.2 °F - 17.6 °F 42% 29.99 in 10.0 mi Calm Calm - N/A   Clear
5:35 PM 37.4 °F - 17.6 °F 45% 30.00 in 10.0 mi Calm Calm - N/A   Clear
5:55 PM 37.4 °F 33.8 °F 19.4 °F 48% 30.00 in 10.0 mi North 4.6 mph - N/A   Clear
6:15 PM 37.4 °F 31.4 °F 17.6 °F 45% 30.00 in 10.0 mi North 8.1 mph - N/A   Clear
6:35 PM 37.4 °F 30.8 °F 14.0 °F 38% 30.00 in 10.0 mi North 9.2 mph - N/A   Clear
6:55 PM 39.2 °F 33.6 °F 15.8 °F 39% 30.01 in 10.0 mi NNE 8.1 mph - N/A   Clear
7:15 PM 37.4 °F 32.8 °F 15.8 °F 41% 30.02 in 10.0 mi NNE 5.8 mph - N/A   Clear
7:35 PM 37.4 °F 31.4 °F 15.8 °F 41% 30.01 in 10.0 mi NNE 8.1 mph - N/A   Clear
7:55 PM 37.4 °F 30.8 °F 15.8 °F 41% 30.02 in 10.0 mi NNE 9.2 mph - N/A   Clear
8:15 PM 37.4 °F 29.8 °F 15.8 °F 41% 30.03 in 10.0 mi NNE 11.5 mph - N/A   Clear
8:35 PM 37.4 °F 29.3 °F 15.8 °F 41% 30.03 in 10.0 mi NNE 12.7 mph - N/A   Clear
8:55 PM 35.6 °F 27.1 °F 14.0 °F 41% 30.03 in 10.0 mi North 12.7 mph - N/A   Clear
9:15 PM 35.6 °F 28.0 °F 14.0 °F 41% 30.03 in 10.0 mi NNE 10.4 mph - N/A   Clear
9:35 PM 35.6 °F 28.0 °F 14.0 °F 41% 30.03 in 10.0 mi NNE 10.4 mph - N/A   Clear
9:55 PM 35.6 °F 27.1 °F 12.2 °F 38% 30.04 in 10.0 mi NNE 12.7 mph - N/A   Clear
10:15 PM 35.6 °F 26.6 °F 12.2 °F 38% 30.03 in 10.0 mi North 13.8 mph - N/A   Clear
10:35 PM 35.6 °F 29.2 °F 12.2 °F 38% 30.04 in 10.0 mi North 8.1 mph - N/A   Clear
10:55 PM 33.8 °F 27.0 °F 12.2 °F 41% 30.03 in 10.0 mi North 8.1 mph - N/A   Clear
11:15 PM 33.8 °F 26.4 °F 12.2 °F 41% 30.02 in 10.0 mi North 9.2 mph - N/A   Clear
11:35 PM 33.8 °F 27.0 °F 12.2 °F 41% 30.02 in 10.0 mi North 8.1 mph - N/A   Clear
11:55 PM 33.8 °F 27.0 °F 10.4 °F 38% 30.02 in 10.0 mi North 8.1 mph - N/A   Clear